K3CHZ Weather Reports


Display with metric or nautical units.
time (UTC)temp
F
wind
direction
speed
MPH
gust
MPH
rain 1hr
in
rain 24hr
in
rain mn
in
humidity
%
barometer
mb
20240227142004 53 162 5.0 9.0 0.00 0.00 0.00 69 1014.0
20240227141504 52 165 1.0 9.0 0.00 0.00 0.00 70 1014.1
20240227141004 52 155 2.0 9.0 0.00 0.00 0.00 71 1014.2
20240227140504 51 154 5.0 9.0 0.00 0.00 0.00 72 1014.3
20240227140004 51 164 3.0 9.0 0.00 0.00 0.00 72 1014.3
20240227135504 50 162 3.0 8.0 0.00 0.00 0.00 74 1014.5
20240227135005 50 166 4.0 8.0 0.00 0.00 0.00 75 1014.5
20240227134504 49 159 0.0 8.0 0.00 0.00 0.00 77 1014.7
20240227134004 49 175 0.0 5.0 0.00 0.00 0.00 78 1014.7
20240227133505 48 113 2.0 5.0 0.00 0.00 0.00 80 1014.7
20240227133005 47 113 0.0 5.0 0.00 0.00 0.00 82 1014.8
20240227132504 47 113 0.0 5.0 0.00 0.00 0.00 83 1014.8
20240227132004 46 113 0.0 5.0 0.00 0.00 0.00 84 1014.9
20240227131505 46 113 0.0 5.0 0.00 0.00 0.00 83 1014.9
20240227131003 46 113 0.0 3.0 0.00 0.00 0.00 84 1014.9
20240227130503 46 113 4.0 3.0 0.00 0.00 0.00 85 1014.9
20240227130005 45 113 0.0 1.0 0.00 0.00 0.00 86 1014.8
20240227125504 45 113 0.0 3.0 0.00 0.00 0.00 87 1014.8
20240227125005 44 113 0.0 5.0 0.00 0.00 0.00 88 1014.8
20240227124503 43 113 4.0 5.0 0.00 0.00 0.00 88 1014.8
20240227124005 43 113 0.0 3.0 0.00 0.00 0.00 88 1014.8
20240227123504 43 113 0.0 5.0 0.00 0.00 0.00 89 1014.6
20240227123006 42 113 2.0 5.0 0.00 0.00 0.00 90 1014.6
20240227122504 42 113 2.0 5.0 0.00 0.00 0.00 90 1014.7
20240227122005 42 113 4.0 5.0 0.00 0.00 0.00 91 1014.7
20240227121504 41 113 0.0 5.0 0.00 0.00 0.00 90 1014.7
20240227121004 41 113 5.0 5.0 0.00 0.00 0.00 90 1014.7
20240227120504 41 113 0.0 1.0 0.00 0.00 0.00 89 1014.7
20240227120005 41 113 0.0 1.0 0.00 0.00 0.00 89 1014.7
20240227115504 41 113 0.0 1.0 0.00 0.00 0.00 89 1014.7
20240227115004 41 113 0.0 1.0 0.00 0.00 0.00 89 1014.7
20240227114504 42 113 0.0 1.0 0.00 0.00 0.00 88 1014.6
20240227114004 42 113 0.0 0.0 0.00 0.00 0.00 89 1014.7
20240227113504 42 113 0.0 1.0 0.00 0.00 0.00 90 1014.6
20240227113005 41 113 0.0 3.0 0.00 0.00 0.00 91 1014.7
20240227112504 41 113 0.0 3.0 0.00 0.00 0.00 91 1014.9
20240227112005 40 113 0.0 1.0 0.00 0.00 0.00 91 1014.9
20240227111504 39 113 0.0 0.0 0.00 0.00 0.00 91 1014.9
20240227111005 39 113 0.0 0.0 0.00 0.00 0.00 90 1015.0
20240227110505 39 113 0.0 0.0 0.00 0.00 0.00 90 1015.0
20240227110004 39 113 0.0 0.0 0.00 0.00 0.00 90 1015.0
20240227105505 39 113 0.0 0.0 0.00 0.00 0.00 90 1015.0
20240227105006 40 113 0.0 0.0 0.00 0.00 0.00 89 1014.9
20240227104504 40 113 0.0 0.0 0.00 0.00 0.00 89 1015.1
20240227104004 40 113 0.0 0.0 0.00 0.00 0.00 87 1015.2
20240227103504 41 113 0.0 0.0 0.00 0.00 0.00 87 1015.1
20240227103004 42 113 0.0 1.0 0.00 0.00 0.00 87 1014.9
20240227102503 42 113 0.0 1.0 0.00 0.00 0.00 87 1014.9
20240227102004 42 113 0.0 3.0 0.00 0.00 0.00 88 1014.8
20240227101504 42 113 0.0 3.0 0.00 0.00 0.00 87 1014.7
20240227101004 42 113 0.0 1.0 0.00 0.00 0.00 88 1014.7
20240227100501 42 113 0.0 3.0 0.00 0.00 0.00 90 1014.6
20240227100001 42 113 1.0 3.0 0.00 0.00 0.00 87 1014.6
20240227095503 42 113 2.0 3.0 0.00 0.00 0.00 87 1014.7
20240227095001 43 113 0.0 3.0 0.00 0.00 0.00 86 1014.6
20240227094501 43 113 0.0 0.0 0.00 0.00 0.00 86 1014.7
20240227094001 43 113 0.0 0.0 0.00 0.00 0.00 87 1014.6
20240227093502 42 113 0.0 0.0 0.00 0.00 0.00 87 1014.6
20240227093001 42 113 0.0 1.0 0.00 0.00 0.00 87 1014.6
20240227092501 42 113 0.0 1.0 0.00 0.00 0.00 86 1014.5
20240227092002 43 113 0.0 1.0 0.00 0.00 0.00 86 1014.5
20240227091503 43 113 0.0 0.0 0.00 0.00 0.00 86 1014.5
20240227091001 43 113 0.0 0.0 0.00 0.00 0.00 85 1014.6
20240227090501 43 113 0.0 1.0 0.00 0.00 0.00 86 1014.6
20240227090003 43 113 1.0 1.0 0.00 0.00 0.00 86 1014.6
20240227085501 43 113 0.0 1.0 0.00 0.00 0.00 85 1014.5
20240227085003 43 113 0.0 1.0 0.00 0.00 0.00 86 1014.5
20240227084501 43 113 0.0 3.0 0.00 0.00 0.00 85 1014.5
20240227084001 43 113 0.0 3.0 0.00 0.00 0.00 85 1014.5
20240227083501 43 113 0.0 1.0 0.00 0.00 0.00 85 1014.6
20240227083002 43 113 0.0 3.0 0.00 0.00 0.00 85 1014.5
20240227082501 43 113 1.0 3.0 0.00 0.00 0.00 85 1014.5
20240227082002 43 113 0.0 3.0 0.00 0.00 0.00 85 1014.6
20240227081501 43 113 2.0 3.0 0.00 0.00 0.00 84 1014.5
20240227081002 43 113 0.0 3.0 0.00 0.00 0.00 84 1014.6
20240227080501 43 113 0.0 3.0 0.00 0.00 0.00 84 1014.6
20240227080002 43 113 0.0 3.0 0.00 0.00 0.00 84 1014.6
20240227075502 43 113 0.0 1.0 0.00 0.00 0.00 85 1014.6
20240227075001 43 113 0.0 3.0 0.00 0.00 0.00 86 1014.6
20240227074501 42 113 0.0 3.0 0.00 0.00 0.00 85 1014.6
20240227074001 42 113 2.0 3.0 0.00 0.00 0.00 86 1014.6
20240227073502 42 113 0.0 0.0 0.00 0.00 0.00 85 1014.7
20240227073002 43 113 0.0 0.0 0.00 0.00 0.00 84 1015.0
20240227072503 43 113 0.0 0.0 0.00 0.00 0.00 85 1015.0
20240227072002 43 113 0.0 5.0 0.00 0.00 0.00 84 1015.0
20240227071501 43 113 1.0 5.0 0.00 0.00 0.00 85 1015.0
20240227071001 42 113 0.0 1.0 0.00 0.00 0.00 85 1015.0
20240227070501 43 113 0.0 1.0 0.00 0.00 0.00 84 1015.0
20240227070002 43 113 0.0 1.0 0.00 0.00 0.00 85 1015.0
20240227065501 42 113 0.0 1.0 0.00 0.00 0.00 84 1015.0
20240227065002 42 113 0.0 0.0 0.00 0.00 0.00 84 1015.1
20240227064501 43 113 0.0 0.0 0.00 0.00 0.00 83 1015.1
20240227064005 43 113 0.0 3.0 0.00 0.00 0.00 85 1015.2
20240227063501 43 113 0.0 3.0 0.00 0.00 0.00 83 1015.2
20240227063002 43 113 2.0 3.0 0.00 0.00 0.00 83 1015.2
20240227062503 43 113 0.0 1.0 0.00 0.00 0.00 83 1015.3
20240227062003 43 113 0.0 1.0 0.00 0.00 0.00 83 1015.3
20240227061501 43 113 0.0 1.0 0.00 0.00 0.00 82 1015.4
20240227061001 44 113 0.0 3.0 0.00 0.00 0.00 82 1015.4
20240227060502 43 113 1.0 3.0 0.00 0.00 0.00 83 1015.4
20240227060001 44 113 0.0 3.0 0.00 0.00 0.00 82 1015.4
20240227055501 44 113 0.0 3.0 0.00 0.00 0.00 82 1015.5
20240227055001 44 113 0.0 0.0 0.00 0.00 0.00 82 1015.6
20240227054501 44 113 0.0 1.0 0.00 0.00 0.00 81 1015.6
20240227054001 44 113 0.0 3.0 0.00 0.00 0.00 80 1015.6
20240227053502 45 113 0.0 3.0 0.00 0.00 0.00 80 1015.6
20240227053001 45 113 1.0 3.0 0.00 0.00 0.00 80 1015.6
20240227052502 45 113 0.0 5.0 0.00 0.00 0.00 79 1015.6
20240227052003 45 113 0.0 5.0 0.00 0.00 0.00 79 1015.7
20240227051503 45 113 2.0 5.0 0.00 0.00 0.00 79 1015.7
20240227051005 45 113 0.0 1.0 0.00 0.00 0.00 80 1015.7
20240227050502 45 113 0.0 6.0 0.00 0.00 0.00 79 1015.7
20240227050001 45 113 0.0 6.0 0.00 0.00 0.00 79 1015.7
20240227045502 45 109 3.0 5.0 0.00 0.00 0.00 79 1015.7
20240227045003 45 109 5.0 5.0 0.00 0.00 0.00 80 1015.6
20240227044502 45 109 0.0 3.0 0.00 0.00 0.00 78 1015.8
20240227044002 45 109 1.0 3.0 0.00 0.00 0.00 78 1015.8
20240227043502 46 109 0.0 1.0 0.00 0.00 0.00 76 1015.9
20240227043003 47 109 0.0 0.0 0.00 0.00 0.00 76 1015.9
20240227042501 46 109 0.0 3.0 0.00 0.00 0.00 78 1015.9
20240227042002 46 109 0.0 3.0 0.00 0.00 0.00 77 1015.9
20240227041503 46 109 0.0 3.0 0.00 0.00 0.00 77 1015.9
20240227041001 46 109 0.0 1.0 0.00 0.00 0.00 76 1016.0
20240227040502 47 109 0.0 5.0 0.00 0.00 0.00 76 1016.0
20240227040003 47 109 0.0 5.0 0.00 0.00 0.00 75 1016.1
20240227035502 47 109 0.0 3.0 0.00 0.00 0.00 75 1016.2
20240227035003 47 109 0.0 3.0 0.00 0.00 0.00 76 1016.2
20240227034503 46 109 0.0 3.0 0.00 0.00 0.00 76 1016.2
20240227034002 46 109 0.0 1.0 0.00 0.00 0.00 76 1016.2
20240227033501 46 109 0.0 3.0 0.00 0.00 0.00 76 1016.2
20240227033003 46 109 1.0 3.0 0.00 0.00 0.00 76 1016.2
20240227032503 46 109 0.0 3.0 0.00 0.00 0.00 75 1016.3
20240227032001 47 109 1.0 3.0 0.00 0.00 0.00 73 1016.3
20240227031501 47 109 0.0 5.0 0.00 0.00 0.00 73 1016.3
20240227031001 47 109 0.0 5.0 0.00 0.00 0.00 73 1016.4
20240227030504 48 111 0.0 5.0 0.00 0.00 0.00 72 1016.3
20240227030001 48 106 1.0 3.0 0.00 0.00 0.00 72 1016.4
20240227025502 48 106 0.0 6.0 0.00 0.00 0.00 71 1016.3
20240227025002 48 121 1.0 6.0 0.00 0.00 0.00 71 1016.2
20240227024501 49 121 3.0 6.0 0.00 0.00 0.00 71 1016.2
20240227024001 49 115 2.0 6.0 0.00 0.00 0.00 71 1016.3
20240227023503 48 138 3.0 5.0 0.00 0.00 0.00 71 1016.3
20240227023003 48 138 0.0 6.0 0.00 0.00 0.00 71 1016.3
20240227022501 49 138 2.0 6.0 0.00 0.00 0.00 70 1016.2
20240227022001 49 138 1.0 6.0 0.00 0.00 0.00 70 1016.2
20240227021502 48 138 5.0 6.0 0.00 0.00 0.00 71 1016.2
20240227021001 48 128 0.0 6.0 0.00 0.00 0.00 70 1016.2
20240227020501 48 128 0.0 1.0 0.00 0.00 0.00 70 1016.2
20240227020002 49 128 0.0 5.0 0.00 0.00 0.00 69 1016.1
20240227015502 49 128 0.0 5.0 0.00 0.00 0.00 68 1016.1
20240227015004 49 128 3.0 5.0 0.00 0.00 0.00 68 1016.1
20240227014502 50 129 0.0 6.0 0.00 0.00 0.00 67 1016.1
20240227014001 50 129 3.0 6.0 0.00 0.00 0.00 67 1016.2
20240227013501 50 129 5.0 6.0 0.00 0.00 0.00 66 1016.1
20240227013002 50 129 1.0 6.0 0.00 0.00 0.00 66 1016.2
20240227012502 50 128 5.0 6.0 0.00 0.00 0.00 66 1016.1
20240227012001 50 128 3.0 6.0 0.00 0.00 0.00 65 1016.0
20240227011501 50 128 2.0 6.0 0.00 0.00 0.00 66 1016.0
20240227011002 50 123 5.0 6.0 0.00 0.00 0.00 66 1015.8
20240227010502 50 123 3.0 6.0 0.00 0.00 0.00 65 1015.8
20240227010002 50 123 1.0 5.0 0.00 0.00 0.00 64 1015.9
20240227005502 50 123 1.0 5.0 0.00 0.00 0.00 64 1015.9
20240227005002 50 123 0.0 5.0 0.00 0.00 0.00 63 1015.9
20240227004504 50 123 3.0 5.0 0.00 0.00 0.00 64 1015.8
20240227004002 50 123 0.0 1.0 0.00 0.00 0.00 63 1015.9
20240227003501 51 123 0.0 3.0 0.00 0.00 0.00 63 1015.9
20240227003004 50 123 1.0 3.0 0.00 0.00 0.00 63 1016.0
20240227002502 50 123 0.0 0.0 0.00 0.00 0.00 63 1015.9
20240227002005 51 123 0.0 0.0 0.00 0.00 0.00 62 1015.9
20240227001501 51 123 0.0 1.0 0.00 0.00 0.00 61 1015.9
20240227001002 51 122 0.0 5.0 0.00 0.00 0.00 60 1015.9
20240227000501 52 122 0.0 5.0 0.00 0.00 0.00 60 1015.9
20240227000004 52 122 2.0 5.0 0.00 0.00 0.00 59 1015.9
20240226235502 53 122 2.0 6.0 0.00 0.00 0.00 58 1015.9
20240226235002 53 122 5.0 6.0 0.00 0.00 0.00 58 1015.9
20240226234503 53 123 6.0 6.0 0.00 0.00 0.00 57 1015.9
20240226234002 54 140 3.0 6.0 0.00 0.00 0.00 56 1015.8
20240226233501 54 123 4.0 6.0 0.00 0.00 0.00 56 1015.6
20240226233003 54 135 4.0 8.0 0.00 0.00 0.00 56 1015.6
20240226232501 54 145 5.0 8.0 0.00 0.00 0.00 55 1015.7
20240226232004 55 136 3.0 6.0 0.00 0.00 0.00 55 1015.6
20240226231501 55 136 4.0 6.0 0.00 0.00 0.00 55 1015.5
20240226231002 56 136 0.0 5.0 0.00 0.00 0.00 54 1015.5
20240226230501 56 136 0.0 5.0 0.00 0.00 0.00 54 1015.5
20240226230004 56 135 0.0 6.0 0.00 0.00 0.00 54 1015.4
20240226225501 56 135 5.0 6.0 0.00 0.00 0.00 53 1015.4
20240226225003 57 136 5.0 6.0 0.00 0.00 0.00 52 1015.4
20240226224501 57 136 5.0 8.0 0.00 0.00 0.00 52 1015.4
20240226224005 57 136 6.0 8.0 0.00 0.00 0.00 51 1015.3
20240226223502 58 136 6.0 8.0 0.00 0.00 0.00 51 1015.3
20240226223002 58 136 2.0 8.0 0.00 0.00 0.00 51 1015.2
20240226222501 58 137 7.0 8.0 0.00 0.00 0.00 50 1015.1
20240226222003 59 130 0.0 9.0 0.00 0.00 0.00 51 1015.2
20240226221501 60 122 7.0 10.0 0.00 0.00 0.00 48 1015.1
20240226221002 61 121 7.0 10.0 0.00 0.00 0.00 46 1015.1
20240226220501 62 120 7.0 8.0 0.00 0.00 0.00 39 1015.0
20240226220002 62 168 0.0 9.0 0.00 0.00 0.00 37 1014.8
20240226215506 63 168 4.0 9.0 0.00 0.00 0.00 36 1014.8
20240226215005 63 177 0.0 6.0 0.00 0.00 0.00 37 1014.9
20240226214504 63 193 5.0 8.0 0.00 0.00 0.00 37 1014.9
20240226214007 63 192 3.0 8.0 0.00 0.00 0.00 36 1014.9
20240226213502 63 153 3.0 8.0 0.00 0.00 0.00 35 1014.9
20240226213002 63 181 0.0 8.0 0.00 0.00 0.00 36 1014.9
20240226212502 63 181 2.0 8.0 0.00 0.00 0.00 37 1014.8
20240226212002 63 159 2.0 8.0 0.00 0.00 0.00 36 1014.8
20240226211502 63 159 2.0 8.0 0.00 0.00 0.00 35 1014.9
20240226211002 63 167 4.0 8.0 0.00 0.00 0.00 36 1015.0
20240226210502 63 139 6.0 8.0 0.00 0.00 0.00 37 1015.0
20240226210002 63 121 0.0 8.0 0.00 0.00 0.00 37 1015.0
20240226205503 63 121 0.0 10.0 0.00 0.00 0.00 36 1014.9
20240226205002 64 167 3.0 10.0 0.00 0.00 0.00 36 1015.0
20240226204503 64 163 0.0 9.0 0.00 0.00 0.00 37 1015.0
20240226204002 64 163 1.0 9.0 0.00 0.00 0.00 37 1015.0
20240226203501 64 169 3.0 6.0 0.00 0.00 0.00 35 1015.1
20240226203002 64 241 1.0 8.0 0.00 0.00 0.00 35 1015.1
20240226202501 64 190 6.0 8.0 0.00 0.00 0.00 34 1015.1
20240226202003 64 175 0.0 5.0 0.00 0.00 0.00 34 1015.1
20240226201503 64 227 1.0 9.0 0.00 0.00 0.00 35 1015.1
20240226201002 63 252 6.0 9.0 0.00 0.00 0.00 35 1015.1
20240226200502 63 234 1.0 8.0 0.00 0.00 0.00 35 1015.1
20240226200002 63 205 4.0 8.0 0.00 0.00 0.00 36 1015.1
20240226195503 63 225 6.0 10.0 0.00 0.00 0.00 36 1015.1
20240226195002 63 174 6.0 10.0 0.00 0.00 0.00 35 1015.2
20240226194502 63 173 6.0 9.0 0.00 0.00 0.00 36 1015.2
20240226194003 63 174 3.0 8.0 0.00 0.00 0.00 36 1015.2
20240226193501 63 154 1.0 8.0 0.00 0.00 0.00 36 1015.2
20240226193003 63 188 1.0 14.0 0.00 0.00 0.00 36 1015.2
20240226192502 63 154 6.0 14.0 0.00 0.00 0.00 36 1015.3
20240226192002 63 164 2.0 9.0 0.00 0.00 0.00 36 1015.3
20240226191502 63 216 3.0 8.0 0.00 0.00 0.00 35 1015.4
20240226191003 63 186 1.0 8.0 0.00 0.00 0.00 36 1015.3
20240226190502 63 207 3.0 6.0 0.00 0.00 0.00 35 1015.3
20240226190002 63 219 2.0 8.0 0.00 0.00 0.00 35 1015.3
20240226185502 63 184 3.0 9.0 0.00 0.00 0.00 35 1015.3
20240226185002 62 182 1.0 9.0 0.00 0.00 0.00 35 1015.4
20240226184502 63 186 3.0 9.0 0.00 0.00 0.00 36 1015.5
20240226184002 62 153 2.0 8.0 0.00 0.00 0.00 35 1015.5
20240226183503 62 190 3.0 8.0 0.00 0.00 0.00 37 1015.5
20240226183002 62 208 1.0 8.0 0.00 0.00 0.00 36 1015.6
20240226182502 62 183 3.0 8.0 0.00 0.00 0.00 37 1015.7
20240226182002 62 196 0.0 9.0 0.00 0.00 0.00 36 1015.7
20240226181503 62 204 3.0 9.0 0.00 0.00 0.00 36 1015.9
20240226181002 61 171 3.0 9.0 0.00 0.00 0.00 39 1015.9
20240226180502 61 156 4.0 9.0 0.00 0.00 0.00 37 1016.0
20240226180006 61 212 1.0 9.0 0.00 0.00 0.00 38 1016.0
20240226175502 61 178 2.0 8.0 0.00 0.00 0.00 38 1016.2
20240226175002 61 155 1.0 8.0 0.00 0.00 0.00 38 1016.3
20240226174503 61 181 1.0 8.0 0.00 0.00 0.00 38 1016.3
20240226174003 61 294 0.0 6.0 0.00 0.00 0.00 37 1016.3
20240226173502 61 286 1.0 6.0 0.00 0.00 0.00 40 1016.4
20240226173005 61 271 2.0 6.0 0.00 0.00 0.00 38 1016.6
20240226172502 60 183 0.0 6.0 0.00 0.00 0.00 39 1016.6
20240226172003 60 245 1.0 6.0 0.00 0.00 0.00 40 1016.7
20240226171503 59 208 1.0 8.0 0.00 0.00 0.00 40 1016.9
20240226171003 59 187 0.0 8.0 0.00 0.00 0.00 43 1017.0
20240226170503 58 151 1.0 9.0 0.00 0.00 0.00 42 1017.0
20240226170004 58 151 4.0 9.0 0.00 0.00 0.00 42 1017.0
20240226165502 57 156 5.0 8.0 0.00 0.00 0.00 44 1017.2
20240226165004 57 204 2.0 8.0 0.00 0.00 0.00 44 1017.3
20240226164502 57 182 0.0 8.0 0.00 0.00 0.00 44 1017.3
20240226164004 56 208 2.0 10.0 0.00 0.00 0.00 46 1017.4
20240226163503 56 201 2.0 10.0 0.00 0.00 0.00 45 1017.4
20240226163003 55 148 5.0 8.0 0.00 0.00 0.00 45 1017.4
20240226162502 55 229 3.0 8.0 0.00 0.00 0.00 47 1017.5
20240226162003 55 213 2.0 9.0 0.00 0.00 0.00 47 1017.5
20240226161503 54 213 6.0 9.0 0.00 0.00 0.00 47 1017.5
20240226161004 54 194 3.0 8.0 0.00 0.00 0.00 49 1017.5
20240226160502 54 190 1.0 8.0 0.00 0.00 0.00 50 1017.5
20240226160002 53 168 1.0 6.0 0.00 0.00 0.00 50 1017.5
20240226155503 53 183 4.0 6.0 0.00 0.00 0.00 49 1017.5
20240226155002 53 233 1.0 6.0 0.00 0.00 0.00 50 1017.4
20240226154502 53 258 0.0 6.0 0.00 0.00 0.00 51 1017.4
20240226154003 52 225 0.0 6.0 0.00 0.00 0.00 51 1017.5
20240226153502 52 259 0.0 6.0 0.00 0.00 0.00 52 1017.5
20240226153003 51 261 3.0 6.0 0.00 0.00 0.00 53 1017.5
20240226152502 51 277 1.0 3.0 0.00 0.00 0.00 54 1017.6
20240226152003 50 277 0.0 9.0 0.00 0.00 0.00 54 1017.6
20240226151502 50 277 4.0 9.0 0.00 0.00 0.00 54 1017.6
20240226151002 50 177 3.0 8.0 0.00 0.00 0.00 55 1017.6
20240226150504 49 273 0.0 5.0 0.00 0.00 0.00 57 1017.6
20240226150002 49 270 3.0 5.0 0.00 0.00 0.00 58 1017.6
20240226145503 48 262 2.0 6.0 0.00 0.00 0.00 59 1017.6
20240226145004 48 190 0.0 6.0 0.00 0.00 0.00 60 1017.6
20240226144502 47 189 0.0 6.0 0.00 0.00 0.00 60 1017.7
20240226144002 47 151 2.0 6.0 0.00 0.00 0.00 61 1017.7
20240226143504 46 257 1.0 10.0 0.00 0.00 0.00 62 1017.7
20240226143002 46 271 5.0 10.0 0.00 0.00 0.00 64 1017.7
20240226142502 45 260 0.0 9.0 0.00 0.00 0.00 66 1017.7